Location: Cicognara
(44.9500°N, 10.4667°E)
Time: 06:47:20
(UTC+00:00)

BREEZE-M DEB (TANK) - Pass Details

Date: 20 June 2021
Orbit: 320 x 14773 km, 49.5° (Epoch: 04 August)

Event Time Altitude Azimuth Distance (km) Brightness Sun altitude
Rises 19:58:52 0° 236° (SW) 2,066 5.9 -7.7°
Reaches altitude 10° 20:00:27 10° 232° (SW) 1,240 4.7 -7.9°
Maximum altitude 20:02:41 64° 150° (SSE) 443 2.1 -8.2°
Drops below altitude 10° 20:06:39 10° 67° (ENE) 2,189 5.7 -8.7°
Sets 20:10:31 0° 65° (ENE) 4,117 7.1 -9.1°
